User: anonymous   Login
Location: Barnston
(51.8500°N, 0.4000°E)
Time: 05:32:33
(UTC+00:00)
Language:

NOSS 2-3 (D) - Orbit

View from above orbital plane
View from above orbital plane
View from above satellite
View from above satellite

Ground track
Ground track

The orbit data is extracted from the following two-line orbital elements,

1 23862U 96029D   24035.80026874 0.00002153  00000-0  50816-3 0    03
2 23862  63.3331 283.3346 0800960  37.6045 322.3892 13.42439134    02
Epoch (UTC): 04 February 2024 19:12:23
Eccentricity: 0.0800960
inclination: 63.3331°
perigee height: 501 km
apogee height: 1699 km
right ascension of ascending node: 283.3346°
argument of perigee: 37.6045°
revolutions per day: 13.42439134
mean anomaly at epoch: 322.3892°
orbit number at epoch: 0

The dashed part of the orbit path shows where the satellite is in the earth's shadow,  

DLR